Weather in Kataragama

Sri Lanka     6°30′02″N   81°18′59″E
temp.,
°C
wind,
m/s
gust,
m/s
humid.,
%
clouds,
%
prec.,
mm/h
press.,
hPa
HPBL,
m
11 may, tue
tue1123:30+25w2289100 1.4 100930
02:30+24wnw1186100 0.0 100712
05:30+24nw118571 0.0 100811
08:30+29wsw2266100 0.0 1010442
11:30+33sw224924 0.0 10081552
14:30+34s545072 0.0 10051636
17:30+29s3571100 0.4 1007293
20:30+26ssw228478 1.6 100952
12 may, wed
wed1223:30+25wsw2290100 1.9 100929
02:30+24wsw2292100 0.0 100749
05:30+24wsw2291100 0.0 100832
08:30+29sw2370100 0.0 1009560
11:30+33sw3352100 0.0 10081549
14:30+32s555985 0.1 1005837
17:30+29ssw476888 0.6 1005577
20:30+26ssw3884100 0.1 1007252
13 may, thu
thu1323:30+25sw3789100 0.3 1007233
02:30+24wsw3791100 0.0 1005212
05:30+24wsw2593100 0.0 1006138
08:30+29wsw3569100 0.0 1008706
11:30+34sw445157 0.0 10071645
14:30+29ssw5876100 1.5 1005384
17:30+28ssw477698 2.5 1005383
20:30+26sw31087100 0.4 1007324
14 may, fri
fri1423:30+25sw3892100 0.4 1007263
02:30+24sw3693100 0.0 1005189
05:30+24wsw2493100 0.0 100596
08:30+29sw357299 0.0 1007696
11:30+34ssw445392 0.1 10061789
14:30+32s5560100 0.7 10031112
17:30+29ssw467385 1.7 1004598
20:30+26ssw3886100 0.0 1006245
15 may, sat
sat1523:30+25sw2691100 0.0 1007174
02:30+24wsw2394100 0.0 100570
05:30+24wsw1194100 0.0 100616
08:30+29wsw2373100 0.3 1007532
11:30+33wsw4554100 0.3 10061412
14:30+32sw4659100 0.1 1003976
17:30+30wsw6967100 0.1 1004696
20:30+26wsw5108021 0.0 1006416